Regional Weather Roundup
Issued by NWS Sterling, VA

Home | Current Version | Previous Version | Text Only | Print | Product List | Glossary Off
Versions: 1 2 3 4 5 6 7 8 9 10 11 12 13 14 15 16 17 18 19 20 21 22 23 24 25 26 27 28 29 30 31 32 33 34 35 36 37 38 39 40 41 42 43 44 45 46 47 48 49 50

000
ASUS41 KLWX 011210
RWRLWX

REGIONAL WEATHER ROUNDUP
NATIONAL WEATHER SERVICE BALTIMORE MD/WASHINGTON DC
800 AM EDT TUE SEP 01 2015

Note: "FAIR" indicates few or no clouds below 12,000 feet
with no significant weather and/or obstructions to visibility.
 TC=TEMPERATURE CELSIUS

 * =Non NWS site. Station does not report precipitation (e.g. rain,
    snow, etc.), thunder, or fog.

DCZ001-MDZ009-015-VAZ040>042-051-053>054-011300-
WASHINGTON METRO

CITY           SKY/WX    TMP DP  RH WIND       PRES   REMARKS
WASHINGTON NAT MOSUNNY   75  70  84 CALM      30.07R
DULLES         SUNNY     71  68  90 NW3       30.08R
ANDREWS AFB    SUNNY     73  70  90 W3        30.06R
FT BELVOIR     SUNNY     68  67  96 CALM      30.07R
QUANTICO       MOSUNNY   72  69  90 CALM      30.08R
COLLEGE PARK*  SUNNY     73  72  94 CALM      30.06R
LEESBURG*      SUNNY     73  70  88 NW3       30.09R
MANASSAS*      PTSUNNY   68  66  94 CALM      30.08R HAZE
GAITHERSBURG*  SUNNY     70  66  88 CALM      30.12R

$$

MDZ006>007-011-014-011300-
BALTIMORE METRO

CITY           SKY/WX    TMP DP  RH WIND       PRES   REMARKS
BWI AIRPORT    MOSUNNY   73  69  87 CALM      30.05R
MD SCIENCE CTR   N/A     77  66  68 MISG      30.06R
MARTIN STATE   MOSUNNY   73  72  94 CALM      30.07R
ANNAPOLIS      SUNNY     74  70  87 NW5       30.05R
FORT MEADE*    SUNNY     68  66  94 CALM      30.08S

$$

MDZ012-015-019>023-011300-
MARYLAND EASTERN SHORE

CITY           SKY/WX    TMP DP  RH WIND       PRES   REMARKS
OCEAN CITY     SUNNY     72  70  93 W3        30.05S
SALISBURY      MOSUNNY   69  68  96 CALM      30.05R
BAY BRIDGE AP*   N/A     73  70  88 W5        30.05S
CAMBRIDGE*     SUNNY     72  68  88 CALM      30.05S
EASTON*        SUNNY     72  72 100 CALM      30.09R

$$

MDZ017>025-011300-
SOUTHERN MARYLAND

CITY           SKY/WX    TMP DP  RH WIND       PRES   REMARKS
PATUXENT RIVER PTSUNNY   71  70  96 W6        30.06R FOG
ST INIGOES     CLOUDY    73  71  93 W3        30.06R FOG
LEONARDTOWN*   NOT AVBL

$$

MDZ003>005-011300-
NORTH CENTRAL MARYLAND

CITY           SKY/WX    TMP DP  RH WIND       PRES   REMARKS
FREDERICK*     SUNNY     68  68 100 CALM      30.11R
HAGERSTOWN APT SUNNY     69  65  86 S5        30.11R
WESTMINSTER*   SUNNY     70  66  88 CALM      30.09R

$$

MDZ501>502-011300-
WESTERN MARYLAND

CITY           SKY/WX    TMP DP  RH WIND       PRES   REMARKS
OAKLAND*       SUNNY     63  61  94 CALM      30.23R
CUMBERLAND*    MOSUNNY   66  66 100 CALM      30.17R

$$

VAZ025>031-011300-
SHENANDOAH VALLEY

CITY           SKY/WX    TMP DP  RH WIND       PRES   REMARKS
WINCHESTER*    SUNNY     70  64  83 CALM      30.11R
FRONT ROYAL*   FAIR      68  63  83 S6        30.11R
LURAY*         FAIR      64  63  94 CALM      30.14R
NEW MARKET*    FAIR      63  62  95 CALM      30.13R
STAUNTON*      SUNNY     64  62  91 CALM      30.18R FOG
WAYNESBORO*    FAIR      67  63  85 CALM      30.16R

$$

WVZ021-048>050-054>055-011300-
EASTERN WEST VIRGINIA PANHANDLE

CITY           SKY/WX    TMP DP  RH WIND       PRES   REMARKS
MARTINSBURG    NOT AVBL
PETERSBURG*    FOG       63  63 100 CALM      30.17R VSB<1/4

$$

VAZ036>039-050-011300-
CENTRAL FOOTHILLS

CITY           SKY/WX    TMP DP  RH WIND       PRES   REMARKS
CHARLOTTESVILL SUNNY     69  66  90 CALM      30.09R
CULPEPER*      SUNNY     66  66  99 CALM      30.09R
ORANGE*        SUNNY     70  68  94 CALM      30.10R
GORDONSVILLE*  FAIR      68  68 100 CALM      30.08R
WARRENTON*     FAIR      69  69 100 CALM      30.08R

$$

VAZ055>057-011300-
NORTH AND CENTRAL PIEDMONT

CITY           SKY/WX    TMP DP  RH WIND       PRES   REMARKS
FREDERICKSBRG* CLOUDY    73  73 100 CALM      30.07R
STAFFORD*      CLOUDY    69  68  96 CALM      30.12R FOG

$$

NCZ024-NYZ072-PAZ021-071-VAZ022-071-011300-
OTHER REGIONAL OBSERVATIONS

CITY           SKY/WX    TMP DP  RH WIND       PRES   REMARKS
NEW YORK CITY  SUNNY     77  65  66 CALM      30.07R
PHILADELPHIA   SUNNY     76  68  76 N3        30.05R
PITTSBURGH     MOSUNNY   68  64  87 CALM      30.14R FOG
ROANOKE        SUNNY     69  63  81 NW5       30.17R
RICHMOND       CLOUDY    73  69  87 CALM      30.08R
RALEIGH        MOSUNNY   69  68  96 CALM      30.11R

$$

ANZ530>537-011300-
MARINE OBSERVATIONS

STATION/POSITION TIME  TEMP    WIND        PRES
                       AIR SEA DIR/SP/G
                 (UTC) (F)     (DEG/KT/KT) (MB)
THOMAS PT LIGHT  NOT AVBL
BALT KEY BRIDGE  1100   73     230/  4/  4 1017.0R
COVE POINT       1100   72     280/  3/  5 1018.3R
LEWISETTA        1100   71 79  240/  3/  4 1017.3R
SOLOMONS ISLAND  1100      80                N/A
PINEY POINT      1105          280/  4/  6   N/A

$$




USA.gov is the U.S. government's official web portal to all federal, state and local government web resources and services.